Time,TemperatureF,DewpointF,PressureIn,WindDirection,WindDirectionDegrees,WindSpeedMPH,WindSpeedGustMPH,Humidity,HourlyPrecipIn,Conditions,Clouds,dailyrainin,SolarRadiationWatts/m^2,SoftwareType,DateUTC
2013-03-17 00:04:00,26.3,18.8,30.18,WNW,300,2.3,2.3,73,0.00,CLR,,0.00,0.0,WeatherDisplay:10.37,2013-03-17 05:04:00,
2013-03-17 00:09:00,26.2,18.4,30.18,West,278,1.1,1.1,72,0.00,CLR,,0.00,0.0,WeatherDisplay:10.37,2013-03-17 05:09:00,
2013-03-17 00:14:00,26.1,18.3,30.18,South,183,2.3,2.3,72,0.00,CLR,,0.00,0.0,WeatherDisplay:10.37,2013-03-17 05:14:00,
2013-03-17 00:19:00,26.0,18.2,30.18,SSW,213,0.0,0.0,72,0.00,CLR,,0.00,0.0,WeatherDisplay:10.37,2013-03-17 05:19:00,
2013-03-17 00:24:00,25.9,18.1,30.19,WSW,258,0.0,0.0,72,0.00,CLR,,0.00,0.0,WeatherDisplay:10.37,2013-03-17 05:24:00,
2013-03-17 00:29:00,25.8,18.3,30.19,West,264,0.0,0.0,73,0.00,CLR,,0.00,0.0,WeatherDisplay:10.37,2013-03-17 05:29:00,
2013-03-17 00:34:00,25.6,18.1,30.19,WNW,290,0.0,0.0,73,0.00,CLR,,0.00,0.0,WeatherDisplay:10.37,2013-03-17 05:34:00,
2013-03-17 00:39:00,25.6,18.1,30.19,West,266,0.0,0.0,73,0.00,CLR,,0.00,0.0,WeatherDisplay:10.37,2013-03-17 05:39:00,
2013-03-17 00:44:00,25.5,18.0,30.19,West,266,0.0,0.0,73,0.00,CLR,,0.00,0.0,WeatherDisplay:10.37,2013-03-17 05:44:00,
2013-03-17 00:49:00,25.4,18.3,30.19,West,266,0.0,0.0,74,0.00,CLR,,0.00,0.0,WeatherDisplay:10.37,2013-03-17 05:49:00,
2013-03-17 00:54:00,25.3,18.2,30.20,SW,218,1.1,1.1,74,0.00,CLR,,0.00,0.0,WeatherDisplay:10.37,2013-03-17 05:54:00,
2013-03-17 00:59:00,25.2,18.1,30.19,SW,221,1.1,0.0,74,0.00,CLR,,0.00,0.0,WeatherDisplay:10.37,2013-03-17 05:59:00,
2013-03-17 01:04:00,25.0,17.9,30.19,WNW,294,0.0,0.0,74,0.00,CLR,,0.00,0.0,WeatherDisplay:10.37,2013-03-17 06:04:00,
2013-03-17 01:09:00,25.0,17.9,30.20,WNW,296,0.0,0.0,74,0.00,CLR,,0.00,0.0,WeatherDisplay:10.37,2013-03-17 06:09:00,
2013-03-17 01:14:00,24.9,17.8,30.19,WSW,254,0.0,0.0,74,0.00,CLR,,0.00,0.0,WeatherDisplay:10.37,2013-03-17 06:14:00,
2013-03-17 01:19:00,24.8,17.7,30.20,WSW,244,0.0,0.0,74,0.00,CLR,,0.00,0.0,WeatherDisplay:10.37,2013-03-17 06:19:00,
2013-03-17 01:24:00,24.6,17.5,30.20,SW,225,0.0,0.0,74,0.00,CLR,,0.00,0.0,WeatherDisplay:10.37,2013-03-17 06:24:00,
2013-03-17 01:29:00,24.5,17.4,30.20,WNW,289,1.1,0.0,74,0.00,CLR,,0.00,0.0,WeatherDisplay:10.37,2013-03-17 06:29:00,
2013-03-17 01:34:00,24.4,17.0,30.20,WNW,289,0.0,0.0,73,0.00,CLR,,0.00,0.0,WeatherDisplay:10.37,2013-03-17 06:34:00,
2013-03-17 01:39:00,24.2,16.8,30.21,West,268,0.0,0.0,73,0.00,CLR,,0.00,0.0,WeatherDisplay:10.37,2013-03-17 06:39:00,
2013-03-17 01:44:00,24.1,16.7,30.21,West,281,1.1,0.0,73,0.00,CLR,,0.00,0.0,WeatherDisplay:10.37,2013-03-17 06:44:00,
2013-03-17 01:49:00,24.0,16.6,30.21,South,169,2.3,2.3,73,0.00,CLR,,0.00,0.0,WeatherDisplay:10.37,2013-03-17 06:49:00,
2013-03-17 01:54:00,24.0,16.6,30.21,West,264,1.1,1.1,73,0.00,CLR,,0.00,0.0,WeatherDisplay:10.37,2013-03-17 06:54:00,
2013-03-17 01:59:00,23.9,16.5,30.21,West,263,0.0,0.0,73,0.00,CLR,,0.00,0.0,WeatherDisplay:10.37,2013-03-17 06:59:00,
2013-03-17 02:04:00,23.8,16.4,30.21,WNW,294,1.1,1.1,73,0.00,CLR,,0.00,0.0,WeatherDisplay:10.37,2013-03-17 07:04:00,
2013-03-17 02:09:00,23.7,16.3,30.21,West,267,1.0,0.0,73,0.00,CLR,,0.00,0.0,WeatherDisplay:10.37,2013-03-17 07:09:00,
2013-03-17 02:14:00,23.6,16.2,30.21,West,281,0.0,0.0,73,0.00,CLR,,0.00,0.0,WeatherDisplay:10.37,2013-03-17 07:14:00,
2013-03-17 02:19:00,23.5,16.1,30.21,West,281,0.0,0.0,73,0.00,CLR,,0.00,0.0,WeatherDisplay:10.37,2013-03-17 07:19:00,
2013-03-17 02:24:00,23.4,16.0,30.21,SW,222,2.3,2.3,73,0.00,CLR,,0.00,0.0,WeatherDisplay:10.37,2013-03-17 07:24:00,
2013-03-17 02:29:00,23.3,15.9,30.21,SW,226,0.0,0.0,73,0.00,CLR,,0.00,0.0,WeatherDisplay:10.37,2013-03-17 07:29:00,
2013-03-17 02:34:00,23.2,15.8,30.21,WNW,289,1.1,1.1,73,0.00,CLR,,0.00,0.0,WeatherDisplay:10.37,2013-03-17 07:34:00,
2013-03-17 02:39:00,23.1,15.7,30.21,WNW,289,0.0,0.0,73,0.00,CLR,,0.00,0.0,WeatherDisplay:10.37,2013-03-17 07:39:00,
2013-03-17 02:44:00,23.0,15.6,30.21,NW,317,0.0,0.0,73,0.00,CLR,,0.00,0.0,WeatherDisplay:10.37,2013-03-17 07:44:00,
2013-03-17 02:49:00,23.0,15.6,30.21,WNW,295,1.1,1.1,73,0.00,CLR,,0.00,0.0,WeatherDisplay:10.37,2013-03-17 07:49:00,
2013-03-17 02:54:00,22.9,15.5,30.21,WNW,295,0.0,0.0,73,0.00,CLR,,0.00,0.0,WeatherDisplay:10.37,2013-03-17 07:54:00,
2013-03-17 02:59:00,22.8,15.4,30.21,West,281,0.0,0.0,73,0.00,CLR,,0.00,0.0,WeatherDisplay:10.37,2013-03-17 07:59:00,
2013-03-17 03:04:00,22.7,15.3,30.21,WNW,289,0.0,0.0,73,0.00,CLR,,0.00,0.0,WeatherDisplay:10.37,2013-03-17 08:04:00,
2013-03-17 03:09:00,22.6,14.9,30.22,WNW,290,2.3,2.3,72,0.00,CLR,,0.00,0.0,WeatherDisplay:10.37,2013-03-17 08:09:00,
2013-03-17 03:14:00,22.5,14.8,30.21,SW,229,0.0,0.0,72,0.00,CLR,,0.00,0.0,WeatherDisplay:10.37,2013-03-17 08:14:00,
2013-03-17 03:19:00,22.3,14.6,30.21,WNW,296,2.3,2.3,72,0.00,CLR,,0.00,0.0,WeatherDisplay:10.37,2013-03-17 08:19:00,
2013-03-17 03:24:00,22.3,14.6,30.21,WNW,295,0.0,0.0,72,0.00,CLR,,0.00,0.0,WeatherDisplay:10.37,2013-03-17 08:24:00,
2013-03-17 03:29:00,22.2,14.5,30.21,WNW,298,0.0,0.0,72,0.00,CLR,,0.00,0.0,WeatherDisplay:10.37,2013-03-17 08:29:00,
2013-03-17 03:34:00,22.1,14.4,30.22,WNW,288,0.0,0.0,72,0.00,CLR,,0.00,0.0,WeatherDisplay:10.37,2013-03-17 08:34:00,
2013-03-17 03:39:00,22.0,14.3,30.22,NW,306,0.0,0.0,72,0.00,CLR,,0.00,0.0,WeatherDisplay:10.37,2013-03-17 08:39:00,
2013-03-17 03:44:00,21.9,14.3,30.22,West,280,3.5,3.5,72,0.00,CLR,,0.00,0.0,WeatherDisplay:10.37,2013-03-17 08:44:00,
2013-03-17 03:49:00,21.8,14.2,30.22,WNW,294,0.0,0.0,72,0.00,CLR,,0.00,0.0,WeatherDisplay:10.37,2013-03-17 08:49:00,
2013-03-17 03:54:00,21.7,14.1,30.22,WNW,285,0.0,0.0,72,0.00,CLR,,0.00,0.0,WeatherDisplay:10.37,2013-03-17 08:54:00,
2013-03-17 03:59:00,21.6,14.0,30.22,WNW,285,1.1,0.0,72,0.00,CLR,,0.00,0.0,WeatherDisplay:10.37,2013-03-17 08:59:00,
2013-03-17 04:04:00,21.6,14.0,30.22,West,279,0.0,0.0,72,0.00,CLR,,0.00,0.0,WeatherDisplay:10.37,2013-03-17 09:04:00,
2013-03-17 04:09:00,21.5,13.9,30.22,WSW,248,1.1,1.1,72,0.00,CLR,,0.00,0.0,WeatherDisplay:10.37,2013-03-17 09:09:00,
2013-03-17 04:14:00,21.3,13.7,30.22,WNW,296,3.5,3.5,72,0.00,CLR,,0.00,0.0,WeatherDisplay:10.37,2013-03-17 09:14:00,
2013-03-17 04:19:00,21.2,13.6,30.22,West,264,2.3,2.3,72,0.00,CLR,,0.00,0.0,WeatherDisplay:10.37,2013-03-17 09:19:00,
2013-03-17 04:24:00,21.1,13.5,30.22,WNW,282,1.1,1.1,72,0.00,CLR,,0.00,0.0,WeatherDisplay:10.37,2013-03-17 09:24:00,
2013-03-17 04:29:00,21.0,13.4,30.21,WNW,297,0.0,0.0,72,0.00,CLR,,0.00,0.0,WeatherDisplay:10.37,2013-03-17 09:29:00,
2013-03-17 04:34:00,20.9,13.3,30.21,NW,319,0.0,0.0,72,0.00,CLR,,0.00,0.0,WeatherDisplay:10.37,2013-03-17 09:34:00,
2013-03-17 04:39:00,20.8,13.2,30.21,WNW,285,1.1,0.0,72,0.00,CLR,,0.00,0.0,WeatherDisplay:10.37,2013-03-17 09:39:00,
2013-03-17 04:44:00,20.7,13.4,30.21,WNW,302,1.1,0.0,73,0.00,CLR,,0.00,0.0,WeatherDisplay:10.37,2013-03-17 09:44:00,
2013-03-17 04:49:00,20.6,13.3,30.21,WNW,293,2.3,2.3,73,0.00,CLR,,0.00,0.0,WeatherDisplay:10.37,2013-03-17 09:49:00,
2013-03-17 04:54:00,20.5,13.2,30.21,WNW,287,1.1,1.1,73,0.00,CLR,,0.00,0.0,WeatherDisplay:10.37,2013-03-17 09:54:00,
2013-03-17 04:59:00,20.4,13.1,30.21,WNW,300,0.0,0.2,73,0.00,CLR,,0.00,0.0,WeatherDisplay:10.37,2013-03-17 09:59:00,
2013-03-17 05:04:00,20.3,13.0,30.22,NNW,342,0.0,0.0,73,0.00,CLR,,0.00,0.0,WeatherDisplay:10.37,2013-03-17 10:04:00,
2013-03-17 05:09:00,20.2,12.9,30.21,WNW,291,1.1,1.1,73,0.00,CLR,,0.00,0.0,WeatherDisplay:10.37,2013-03-17 10:09:00,
2013-03-17 05:14:00,20.1,12.8,30.21,North,1,0.0,0.0,73,0.00,CLR,,0.00,0.0,WeatherDisplay:10.37,2013-03-17 10:14:00,
2013-03-17 05:19:00,20.1,12.8,30.22,WNW,296,1.1,0.0,73,0.00,CLR,,0.00,0.0,WeatherDisplay:10.37,2013-03-17 10:19:00,
2013-03-17 05:24:00,20.0,12.4,30.22,North,352,2.3,0.0,72,0.00,CLR,,0.00,0.0,WeatherDisplay:10.37,2013-03-17 10:24:00,
2013-03-17 05:29:00,19.8,12.5,30.22,West,262,2.3,2.3,73,0.00,CLR,,0.00,0.0,WeatherDisplay:10.37,2013-03-17 10:29:00,
2013-03-17 05:34:00,19.8,12.5,30.22,NW,315,0.0,0.0,73,0.00,CLR,,0.00,0.0,WeatherDisplay:10.37,2013-03-17 10:34:00,
2013-03-17 05:39:00,19.8,12.5,30.23,NNW,347,1.1,0.0,73,0.00,CLR,,0.00,0.0,WeatherDisplay:10.37,2013-03-17 10:39:00,
2013-03-17 05:44:00,19.8,12.5,30.23,NNW,347,0.0,0.0,73,0.00,CLR,,0.00,0.0,WeatherDisplay:10.37,2013-03-17 10:44:00,
2013-03-17 05:49:00,19.6,12.7,30.23,North,358,3.5,3.5,74,0.00,CLR,,0.00,0.0,WeatherDisplay:10.37,2013-03-17 10:49:00,
2013-03-17 05:54:00,19.6,12.3,30.23,North,357,0.0,0.0,73,0.00,CLR,,0.00,0.0,WeatherDisplay:10.37,2013-03-17 10:54:00,
2013-03-17 05:59:00,19.5,12.3,30.24,North,357,0.0,0.0,73,0.00,CLR,,0.00,0.0,WeatherDisplay:10.37,2013-03-17 10:59:00,
2013-03-17 06:04:00,19.5,12.6,30.24,North,357,0.0,0.0,74,0.00,CLR,,0.00,0.0,WeatherDisplay:10.37,2013-03-17 11:04:00,
2013-03-17 06:08:00,19.4,12.5,30.24,North,357,0.0,0.1,74,0.00,CLR,,0.00,0.0,WeatherDisplay:10.37,2013-03-17 11:08:00,
2013-03-17 06:09:00,19.4,12.5,30.24,North,357,0.0,0.1,74,0.00,CLR,,0.00,0.0,WeatherDisplay:10.37,2013-03-17 11:09:00,
2013-03-17 06:10:00,19.4,12.5,30.24,NNE,17,0.0,2.0,74,0.00,OVC,,0.00,0.0,WeatherDisplay:10.37,2013-03-17 11:10:00,
2013-03-17 06:14:00,19.4,12.5,30.24,North,357,0.0,0.1,74,0.00,CLR,,0.00,0.0,WeatherDisplay:10.37,2013-03-17 11:14:00,
2013-03-17 06:25:00,19.3,11.7,30.24,NNE,25,0.0,3.0,72,0.00,OVC,,0.00,0.0,WeatherDisplay:10.37,2013-03-17 11:25:00,
2013-03-17 06:30:00,19.3,11.7,30.24,NNE,22,0.0,3.0,72,0.00,OVC,,0.00,0.0,WeatherDisplay:10.37,2013-03-17 11:30:00,
2013-03-17 06:35:00,19.2,11.6,30.25,NNE,22,0.0,5.0,72,0.00,OVC,,0.00,0.0,WeatherDisplay:10.37,2013-03-17 11:35:00,
2013-03-17 06:40:00,19.2,11.6,30.25,NNE,22,0.0,5.0,72,0.00,OVC,,0.00,0.0,WeatherDisplay:10.37,2013-03-17 11:40:00,
2013-03-17 06:45:00,19.0,11.5,30.25,NNE,22,0.0,3.0,72,0.00,OVC,,0.00,0.0,WeatherDisplay:10.37,2013-03-17 11:45:00,
2013-03-17 06:50:00,19.0,11.5,30.25,NNE,22,0.0,3.0,72,0.00,OVC,,0.00,0.0,WeatherDisplay:10.37,2013-03-17 11:50:00,
2013-03-17 06:55:00,18.7,11.2,30.26,NNE,22,0.0,3.0,72,0.00,OVC,,0.00,0.0,WeatherDisplay:10.37,2013-03-17 11:55:00,
2013-03-17 07:00:00,18.7,11.2,30.26,NNE,22,0.0,3.0,72,0.00,OVC,,0.00,0.0,WeatherDisplay:10.37,2013-03-17 12:00:00,
2013-03-17 07:05:00,18.5,11.0,30.26,NNE,22,0.0,3.0,72,0.00,OVC,,0.00,0.0,WeatherDisplay:10.37,2013-03-17 12:05:00,
2013-03-17 07:10:00,18.5,11.0,30.26,NNE,22,0.0,3.0,72,0.00,OVC,,0.00,0.0,WeatherDisplay:10.37,2013-03-17 12:10:00,
2013-03-17 07:12:00,19.4,12.5,30.24,North,357,0.0,0.1,74,0.00,CLR,,0.00,0.0,WeatherDisplay:10.37,2013-03-17 12:12:00,
2013-03-17 07:15:00,18.4,11.2,30.26,NNE,22,0.0,3.0,73,0.00,OVC,,0.00,3.0,WeatherDisplay:10.37,2013-03-17 12:15:00,
2013-03-17 07:20:00,18.4,11.2,30.26,NNE,22,0.0,3.0,73,0.00,OVC,,0.00,3.0,WeatherDisplay:10.37,2013-03-17 12:20:00,
2013-03-17 07:25:00,18.5,11.3,30.27,NNE,22,0.0,2.0,73,0.00,OVC,,0.00,12.0,WeatherDisplay:10.37,2013-03-17 12:25:00,
2013-03-17 07:30:00,18.5,11.3,30.27,NNE,22,0.0,2.0,73,0.00,OVC,,0.00,12.0,WeatherDisplay:10.37,2013-03-17 12:30:00,
2013-03-17 07:35:00,18.8,11.6,30.28,NNE,22,0.0,4.0,73,0.00,OVC,,0.00,27.0,WeatherDisplay:10.37,2013-03-17 12:35:00,
2013-03-17 07:40:00,18.8,11.6,30.28,NNE,22,0.0,4.0,73,0.00,OVC,,0.00,27.0,WeatherDisplay:10.37,2013-03-17 12:40:00,
2013-03-17 07:45:00,19.0,11.8,30.28,NNE,22,0.0,2.0,73,0.00,OVC,,0.00,39.0,WeatherDisplay:10.37,2013-03-17 12:45:00,
2013-03-17 07:50:00,19.0,11.8,30.28,NNE,22,0.0,2.0,73,0.00,OVC,,0.00,39.0,WeatherDisplay:10.37,2013-03-17 12:50:00,
2013-03-17 07:55:00,19.1,12.2,30.28,NNE,22,0.0,3.0,74,0.00,OVC,,0.00,47.0,WeatherDisplay:10.37,2013-03-17 12:55:00,
2013-03-17 08:00:00,19.1,12.2,30.28,NNE,22,0.0,3.0,74,0.00,OVC,,0.00,47.0,WeatherDisplay:10.37,2013-03-17 13:00:00,
2013-03-17 08:02:00,19.0,12.1,30.28,NNE,25,1.1,1.1,74,0.00,OVC,,0.00,63.0,WeatherDisplay:10.37,2013-03-17 13:02:00,
2013-03-17 08:05:00,19.0,12.1,30.28,NNE,22,0.0,1.0,74,0.00,OVC,,0.00,57.0,WeatherDisplay:10.37,2013-03-17 13:05:00,
2013-03-17 08:07:00,19.0,12.1,30.28,NNE,31,1.1,1.1,74,0.00,BKN,,0.00,62.0,WeatherDisplay:10.37,2013-03-17 13:07:00,
2013-03-17 08:12:00,19.0,12.1,30.28,NNE,30,1.1,1.1,74,0.00,BKN,,0.00,63.0,WeatherDisplay:10.37,2013-03-17 13:12:00,
2013-03-17 08:17:00,19.0,12.1,30.29,NE,43,1.1,0.0,74,0.00,BKN,,0.00,60.0,WeatherDisplay:10.37,2013-03-17 13:17:00,
2013-03-17 08:22:00,19.0,12.1,30.29,North,7,2.3,2.3,74,0.00,BKN,,0.00,44.0,WeatherDisplay:10.37,2013-03-17 13:22:00,
2013-03-17 08:28:00,19.0,11.8,30.29,NNE,15,0.0,0.0,73,0.00,BKN,,0.00,42.0,WeatherDisplay:10.37,2013-03-17 13:28:00,
2013-03-17 08:33:00,19.0,11.8,30.29,NNE,15,0.0,0.0,73,0.00,BKN,,0.00,51.0,WeatherDisplay:10.37,2013-03-17 13:33:00,
2013-03-17 08:38:00,19.0,11.8,30.29,NNE,15,2.3,2.3,73,0.00,BKN,,0.00,62.0,WeatherDisplay:10.37,2013-03-17 13:38:00,
2013-03-17 08:43:00,19.1,11.9,30.29,NNE,15,1.1,0.0,73,0.00,BKN,,0.00,70.0,WeatherDisplay:10.37,2013-03-17 13:43:00,
2013-03-17 08:48:00,19.3,12.1,30.29,NNE,15,0.0,0.0,73,0.00,BKN,,0.00,91.0,WeatherDisplay:10.37,2013-03-17 13:48:00,
2013-03-17 08:53:00,19.8,12.5,30.29,NNE,15,0.0,0.0,73,0.00,BKN,,0.00,158.0,WeatherDisplay:10.37,2013-03-17 13:53:00,
2013-03-17 08:58:00,20.3,12.7,30.29,North,10,0.0,0.0,72,0.00,SCT,,0.00,148.0,WeatherDisplay:10.37,2013-03-17 13:58:00,
2013-03-17 09:03:00,20.6,12.7,30.29,NNE,12,1.1,1.1,71,0.00,SCT,,0.00,171.0,WeatherDisplay:10.37,2013-03-17 14:03:00,
2013-03-17 09:08:00,21.1,13.2,30.29,NE,48,2.3,2.3,71,0.00,SCT,,0.00,186.0,WeatherDisplay:10.37,2013-03-17 14:08:00,
2013-03-17 09:13:00,21.6,13.3,30.29,North,352,1.1,1.1,70,0.00,SCT,,0.00,216.0,WeatherDisplay:10.37,2013-03-17 14:13:00,
2013-03-17 09:18:00,21.9,13.6,30.29,North,356,1.0,0.0,70,0.00,SCT,,0.00,200.0,WeatherDisplay:10.37,2013-03-17 14:18:00,
2013-03-17 09:23:00,22.3,14.0,30.29,NE,47,0.0,0.0,70,0.00,SCT,,0.00,158.0,WeatherDisplay:10.37,2013-03-17 14:23:00,
2013-03-17 09:28:00,22.7,14.4,30.29,NE,47,1.1,1.1,70,0.00,SCT,,0.00,185.0,WeatherDisplay:10.37,2013-03-17 14:28:00,
2013-03-17 09:33:00,22.9,14.6,30.29,NE,38,3.5,3.5,70,0.00,SCT,,0.00,185.0,WeatherDisplay:10.37,2013-03-17 14:33:00,
2013-03-17 09:38:00,23.0,14.7,30.30,NNE,32,3.5,3.5,70,0.00,SCT,,0.00,207.0,WeatherDisplay:10.37,2013-03-17 14:38:00,
2013-03-17 09:43:00,23.3,14.6,30.30,NNE,32,2.3,2.3,69,0.00,SCT,,0.00,329.0,WeatherDisplay:10.37,2013-03-17 14:43:00,
2013-03-17 09:48:00,23.8,15.4,30.30,NNE,32,2.3,2.3,70,0.00,SCT,,0.00,91.0,WeatherDisplay:10.37,2013-03-17 14:48:00,
2013-03-17 09:53:00,24.2,15.8,30.30,NNE,23,4.0,4.0,70,0.00,BKN,,0.00,107.0,WeatherDisplay:10.37,2013-03-17 14:53:00,
2013-03-17 09:58:00,24.1,15.4,30.30,North,352,3.5,3.5,69,0.00,BKN,,0.00,65.0,WeatherDisplay:10.37,2013-03-17 14:58:00,
2013-03-17 10:03:00,24.2,15.8,30.30,NNE,24,3.5,3.5,70,0.00,BKN,,0.00,83.0,WeatherDisplay:10.37,2013-03-17 15:03:00,
2013-03-17 10:08:00,24.5,16.1,30.30,NNE,31,5.0,5.0,70,0.00,BKN,,0.00,77.0,WeatherDisplay:10.37,2013-03-17 15:08:00,
2013-03-17 10:13:00,24.6,16.2,30.30,NNE,27,3.5,3.5,70,0.00,BKN,,0.00,81.0,WeatherDisplay:10.37,2013-03-17 15:13:00,
2013-03-17 10:18:00,25.0,16.9,30.30,NNE,13,3.5,3.5,71,0.00,BKN,,0.00,524.0,WeatherDisplay:10.37,2013-03-17 15:18:00,
2013-03-17 10:23:00,25.7,17.6,30.30,NNE,27,3.5,3.5,71,0.00,FEW,,0.00,561.0,WeatherDisplay:10.37,2013-03-17 15:23:00,
2013-03-17 10:28:00,26.4,17.9,30.30,NNE,25,2.3,2.3,70,0.00,CLR,,0.00,575.0,WeatherDisplay:10.37,2013-03-17 15:28:00,
2013-03-17 10:33:00,26.4,17.3,30.30,NNE,31,3.5,3.5,68,0.00,CLR,,0.00,594.0,WeatherDisplay:10.37,2013-03-17 15:33:00,
2013-03-17 10:38:00,26.5,17.4,30.29,NE,43,6.9,6.9,68,0.00,CLR,,0.00,608.0,WeatherDisplay:10.37,2013-03-17 15:38:00,
2013-03-17 10:43:00,26.5,18.0,30.29,NE,50,6.0,6.0,70,0.00,CLR,,0.00,504.0,WeatherDisplay:10.37,2013-03-17 15:43:00,
2013-03-17 10:48:00,26.6,18.1,30.29,NNE,33,5.8,5.8,70,0.00,CLR,,0.00,624.0,WeatherDisplay:10.37,2013-03-17 15:48:00,
2013-03-17 10:53:00,26.7,18.2,30.30,NE,36,11.0,11.0,70,0.00,CLR,,0.00,640.0,WeatherDisplay:10.37,2013-03-17 15:53:00,
2013-03-17 10:58:00,26.5,18.4,30.29,NE,38,4.6,4.6,71,0.00,CLR,,0.00,647.0,WeatherDisplay:10.37,2013-03-17 15:58:00,
2013-03-17 11:03:00,26.9,18.4,30.29,NNE,25,4.6,4.6,70,0.00,CLR,,0.00,666.0,WeatherDisplay:10.37,2013-03-17 16:03:00,
2013-03-17 11:08:00,27.4,18.9,30.29,NE,42,5.8,5.8,70,0.00,CLR,,0.00,670.0,WeatherDisplay:10.37,2013-03-17 16:08:00,
2013-03-17 11:13:00,27.1,18.6,30.29,NE,38,5.8,5.8,70,0.00,CLR,,0.00,684.0,WeatherDisplay:10.37,2013-03-17 16:13:00,
2013-03-17 11:18:00,27.9,19.4,30.29,NNE,17,6.9,6.9,70,0.00,CLR,,0.00,703.0,WeatherDisplay:10.37,2013-03-17 16:18:00,
2013-03-17 11:23:00,27.7,18.8,30.29,NE,35,3.5,3.5,69,0.00,CLR,,0.00,199.0,WeatherDisplay:10.37,2013-03-17 16:23:00,
2013-03-17 11:28:00,27.7,18.8,30.29,NNW,338,6.9,6.9,69,0.00,SCT,,0.00,225.0,WeatherDisplay:10.37,2013-03-17 16:28:00,
2013-03-17 11:33:00,27.4,18.6,30.29,NNE,21,4.0,4.0,69,0.00,BKN,,0.00,264.0,WeatherDisplay:10.37,2013-03-17 16:33:00,
2013-03-17 11:38:00,27.6,18.8,30.29,NNE,28,5.8,5.8,69,0.00,BKN,,0.00,269.0,WeatherDisplay:10.37,2013-03-17 16:38:00,
2013-03-17 11:43:00,27.6,19.1,30.28,NNE,23,3.5,3.5,70,0.00,BKN,,0.00,253.0,WeatherDisplay:10.37,2013-03-17 16:43:00,
2013-03-17 11:48:00,27.7,18.8,30.28,NE,40,3.5,3.5,69,0.00,SCT,,0.00,295.0,WeatherDisplay:10.37,2013-03-17 16:48:00,
2013-03-17 11:53:00,28.4,19.9,30.28,NW,304,4.0,4.0,70,0.00,SCT,,0.00,926.0,WeatherDisplay:10.37,2013-03-17 16:53:00,
2013-03-17 11:58:00,28.8,19.6,30.28,NNE,15,3.5,3.5,68,0.00,FEW,,0.00,294.0,WeatherDisplay:10.37,2013-03-17 16:58:00,
2013-03-17 12:03:00,28.5,19.6,30.28,NNE,29,8.1,8.1,69,0.00,FEW,,0.00,269.0,WeatherDisplay:10.37,2013-03-17 17:03:00,
2013-03-17 12:08:00,28.6,19.7,30.28,NNE,30,4.6,4.6,69,0.00,BKN,,0.00,272.0,WeatherDisplay:10.37,2013-03-17 17:08:00,
2013-03-17 12:13:00,28.8,19.6,30.27,NE,46,6.9,6.9,68,0.00,BKN,,0.00,360.0,WeatherDisplay:10.37,2013-03-17 17:13:00,
2013-03-17 12:18:00,28.9,20.0,30.27,North,5,4.6,4.6,69,0.00,BKN,,0.00,366.0,WeatherDisplay:10.37,2013-03-17 17:18:00,
2013-03-17 12:23:00,28.9,19.7,30.27,NNE,25,5.8,5.8,68,0.00,SCT,,0.00,360.0,WeatherDisplay:10.37,2013-03-17 17:23:00,
2013-03-17 12:28:00,28.8,20.2,30.26,NNE,15,5.8,5.8,70,0.00,SCT,,0.00,301.0,WeatherDisplay:10.37,2013-03-17 17:28:00,
2013-03-17 12:33:00,28.5,19.6,30.26,NE,39,9.2,9.2,69,0.00,SCT,,0.00,425.0,WeatherDisplay:10.37,2013-03-17 17:33:00,
2013-03-17 12:38:00,28.4,19.5,30.26,NNE,16,5.8,5.8,69,0.00,BKN,,0.00,417.0,WeatherDisplay:10.37,2013-03-17 17:38:00,
2013-03-17 12:43:00,29.5,19.5,30.26,NE,42,9.2,9.2,66,0.00,SCT,,0.00,1076.0,WeatherDisplay:10.37,2013-03-17 17:43:00,
2013-03-17 12:48:00,29.3,19.7,30.26,NE,39,5.8,5.8,67,0.00,CLR,,0.00,946.0,WeatherDisplay:10.37,2013-03-17 17:48:00,
2013-03-17 12:53:00,29.2,19.9,30.26,NE,44,5.8,5.8,68,0.00,CLR,,0.00,882.0,WeatherDisplay:10.37,2013-03-17 17:53:00,
2013-03-17 12:58:00,29.9,20.6,30.26,NNE,27,10.4,10.4,68,0.00,CLR,,0.00,997.0,WeatherDisplay:10.37,2013-03-17 17:58:00,
2013-03-17 13:03:00,29.5,19.2,30.26,NNE,30,9.2,9.2,65,0.00,CLR,,0.00,272.0,WeatherDisplay:10.37,2013-03-17 18:03:00,
2013-03-17 13:08:00,28.8,18.9,30.26,NE,46,6.0,6.0,66,0.00,SCT,,0.00,478.0,WeatherDisplay:10.37,2013-03-17 18:08:00,
2013-03-17 13:13:00,29.5,19.5,30.26,NE,39,6.9,6.9,66,0.00,SCT,,0.00,1055.0,WeatherDisplay:10.37,2013-03-17 18:13:00,
2013-03-17 13:18:00,29.4,19.4,30.26,NE,37,8.0,8.0,66,0.00,SCT,,0.00,309.0,WeatherDisplay:10.37,2013-03-17 18:18:00,
2013-03-17 13:23:00,29.0,19.8,30.26,NE,42,5.0,5.0,68,0.00,SCT,,0.00,272.0,WeatherDisplay:10.37,2013-03-17 18:23:00,
2013-03-17 13:28:00,29.0,19.8,30.26,NE,44,5.8,5.8,68,0.00,BKN,,0.00,478.0,WeatherDisplay:10.37,2013-03-17 18:28:00,
2013-03-17 13:33:00,28.9,19.3,30.25,NE,49,5.8,5.8,67,0.00,SCT,,0.00,895.0,WeatherDisplay:10.37,2013-03-17 18:33:00,
2013-03-17 13:38:00,29.4,20.1,30.25,NE,42,13.8,13.8,68,0.00,CLR,,0.00,1062.0,WeatherDisplay:10.37,2013-03-17 18:38:00,
2013-03-17 13:43:00,29.5,19.9,30.24,NE,44,6.9,6.9,67,0.00,CLR,,0.00,1062.0,WeatherDisplay:10.37,2013-03-17 18:43:00,
2013-03-17 13:48:00,29.5,19.9,30.24,NE,35,10.4,10.4,67,0.00,CLR,,0.00,977.0,WeatherDisplay:10.37,2013-03-17 18:48:00,
2013-03-17 13:53:00,29.3,20.0,30.24,NE,44,10.4,10.4,68,0.00,CLR,,0.00,302.0,WeatherDisplay:10.37,2013-03-17 18:53:00,
2013-03-17 13:58:00,28.9,19.7,30.23,NNE,33,4.6,4.6,68,0.00,SCT,,0.00,350.0,WeatherDisplay:10.37,2013-03-17 18:58:00,
2013-03-17 14:03:00,29.0,20.1,30.23,NE,36,9.2,9.2,69,0.00,SCT,,0.00,571.0,WeatherDisplay:10.37,2013-03-17 19:03:00,
2013-03-17 14:08:00,29.4,20.5,30.22,NNE,25,5.0,5.0,69,0.00,FEW,,0.00,874.0,WeatherDisplay:10.37,2013-03-17 19:08:00,
2013-03-17 14:13:00,29.8,20.5,30.22,NE,36,9.2,9.2,68,0.00,CLR,,0.00,802.0,WeatherDisplay:10.37,2013-03-17 19:13:00,
2013-03-17 14:18:00,29.6,20.0,30.22,NNE,27,9.2,9.2,67,0.00,CLR,,0.00,770.0,WeatherDisplay:10.37,2013-03-17 19:18:00,
2013-03-17 14:23:00,29.4,20.1,30.21,NE,38,10.4,10.4,68,0.00,CLR,,0.00,691.0,WeatherDisplay:10.37,2013-03-17 19:23:00,
2013-03-17 14:28:00,29.2,18.9,30.21,NE,43,3.5,3.5,65,0.00,CLR,,0.00,715.0,WeatherDisplay:10.37,2013-03-17 19:28:00,
2013-03-17 14:34:00,29.5,19.5,30.21,North,6,4.6,4.6,66,0.00,CLR,,0.00,744.0,WeatherDisplay:10.37,2013-03-17 19:34:00,
2013-03-17 14:39:00,29.5,19.5,30.21,NE,34,6.9,6.9,66,0.00,CLR,,0.00,740.0,WeatherDisplay:10.37,2013-03-17 19:39:00,
2013-03-17 14:44:00,29.3,19.0,30.20,NNE,33,10.4,10.4,65,0.00,CLR,,0.00,733.0,WeatherDisplay:10.37,2013-03-17 19:44:00,
2013-03-17 14:49:00,29.2,18.9,30.20,NE,41,5.8,5.8,65,0.00,CLR,,0.00,724.0,WeatherDisplay:10.37,2013-03-17 19:49:00,
2013-03-17 14:54:00,29.7,19.4,30.20,NE,48,8.1,8.1,65,0.00,CLR,,0.00,717.0,WeatherDisplay:10.37,2013-03-17 19:54:00,
2013-03-17 14:59:00,29.0,18.3,30.20,NE,47,9.2,9.2,64,0.00,CLR,,0.00,708.0,WeatherDisplay:10.37,2013-03-17 19:59:00,
2013-03-17 15:04:00,29.3,19.3,30.20,NE,43,9.2,9.2,66,0.00,CLR,,0.00,698.0,WeatherDisplay:10.37,2013-03-17 20:04:00,
2013-03-17 15:09:00,29.1,18.8,30.20,NE,46,9.2,9.2,65,0.00,CLR,,0.00,689.0,WeatherDisplay:10.37,2013-03-17 20:09:00,
2013-03-17 15:14:00,29.1,18.8,30.20,NNE,27,9.2,9.2,65,0.00,CLR,,0.00,677.0,WeatherDisplay:10.37,2013-03-17 20:14:00,
2013-03-17 15:19:00,29.3,19.0,30.20,NE,50,8.1,8.1,65,0.00,CLR,,0.00,664.0,WeatherDisplay:10.37,2013-03-17 20:19:00,
2013-03-17 15:24:00,29.3,19.3,30.20,NE,36,5.8,5.8,66,0.00,CLR,,0.00,654.0,WeatherDisplay:10.37,2013-03-17 20:24:00,
2013-03-17 15:29:00,29.5,19.5,30.20,NE,42,4.6,4.6,66,0.00,CLR,,0.00,619.0,WeatherDisplay:10.37,2013-03-17 20:29:00,
2013-03-17 15:34:00,29.5,19.5,30.20,NE,34,9.2,9.2,66,0.00,CLR,,0.00,640.0,WeatherDisplay:10.37,2013-03-17 20:34:00,
2013-03-17 15:39:00,29.3,19.3,30.20,North,11,5.8,5.8,66,0.00,CLR,,0.00,622.0,WeatherDisplay:10.37,2013-03-17 20:39:00,
2013-03-17 15:48:00,29.3,20.0,30.20,NE,42,8.1,8.1,68,0.00,CLR,,0.00,608.0,WeatherDisplay:10.37,2013-03-17 20:48:00,
2013-03-17 15:53:00,29.3,19.3,30.20,NE,48,6.9,6.9,66,0.00,CLR,,0.00,568.0,WeatherDisplay:10.37,2013-03-17 20:53:00,
2013-03-17 15:58:00,28.9,19.3,30.20,NNE,28,9.0,9.0,67,0.00,CLR,,0.00,571.0,WeatherDisplay:10.37,2013-03-17 20:58:00,
2013-03-17 16:03:00,29.1,19.5,30.20,NE,48,6.9,6.9,67,0.00,CLR,,0.00,563.0,WeatherDisplay:10.37,2013-03-17 21:03:00,
2013-03-17 16:08:00,28.7,18.8,30.20,NE,49,7.0,7.0,66,0.00,CLR,,0.00,633.0,WeatherDisplay:10.37,2013-03-17 21:08:00,
2013-03-17 16:13:00,28.9,19.0,30.20,NNE,31,5.8,5.8,66,0.00,CLR,,0.00,566.0,WeatherDisplay:10.37,2013-03-17 21:13:00,
2013-03-17 16:18:00,29.1,19.8,30.20,NE,39,5.8,5.8,68,0.00,CLR,,0.00,584.0,WeatherDisplay:10.37,2013-03-17 21:18:00,
2013-03-17 16:23:00,29.1,20.2,30.20,NE,44,4.6,4.6,69,0.00,CLR,,0.00,612.0,WeatherDisplay:10.37,2013-03-17 21:23:00,
2013-03-17 16:28:00,29.0,19.4,30.20,NE,46,6.9,6.9,67,0.00,CLR,,0.00,536.0,WeatherDisplay:10.37,2013-03-17 21:28:00,
2013-03-17 16:33:00,29.0,19.1,30.20,NE,40,5.8,5.8,66,0.00,CLR,,0.00,564.0,WeatherDisplay:10.37,2013-03-17 21:33:00,
2013-03-17 16:38:00,29.4,20.1,30.20,NE,52,6.9,6.9,68,0.00,CLR,,0.00,570.0,WeatherDisplay:10.37,2013-03-17 21:38:00,
2013-03-17 16:43:00,29.1,19.8,30.19,NE,37,6.9,6.9,68,0.00,CLR,,0.00,267.0,WeatherDisplay:10.37,2013-03-17 21:43:00,
2013-03-17 16:48:00,28.9,20.0,30.19,NNE,33,6.9,6.9,69,0.00,CLR,,0.00,415.0,WeatherDisplay:10.37,2013-03-17 21:48:00,
2013-03-17 16:53:00,28.7,20.1,30.19,NE,43,4.6,4.6,70,0.00,CLR,,0.00,359.0,WeatherDisplay:10.37,2013-03-17 21:53:00,
2013-03-17 16:58:00,28.4,19.5,30.19,NE,35,6.0,6.0,69,0.00,CLR,,0.00,334.0,WeatherDisplay:10.37,2013-03-17 21:58:00,
2013-03-17 17:03:00,28.2,19.3,30.19,NE,41,5.0,5.0,69,0.00,CLR,,0.00,323.0,WeatherDisplay:10.37,2013-03-17 22:03:00,
2013-03-17 17:08:00,28.2,19.0,30.19,NE,45,4.6,4.6,68,0.00,CLR,,0.00,338.0,WeatherDisplay:10.37,2013-03-17 22:08:00,
2013-03-17 17:13:00,28.4,19.2,30.18,NE,47,6.0,6.0,68,0.00,CLR,,0.00,204.0,WeatherDisplay:10.37,2013-03-17 22:13:00,
2013-03-17 17:18:00,28.1,19.2,30.18,NE,48,5.0,5.0,69,0.00,CLR,,0.00,142.0,WeatherDisplay:10.37,2013-03-17 22:18:00,
2013-03-17 17:23:00,27.9,19.4,30.18,NE,36,5.8,5.8,70,0.00,SCT,,0.00,127.0,WeatherDisplay:10.37,2013-03-17 22:23:00,
2013-03-17 17:28:00,27.9,19.7,30.18,NE,39,10.4,10.4,71,0.00,BKN,,0.00,90.0,WeatherDisplay:10.37,2013-03-17 22:28:00,
2013-03-17 17:33:00,27.5,19.0,30.18,NE,48,6.9,6.9,70,0.00,BKN,,0.00,69.0,WeatherDisplay:10.37,2013-03-17 22:33:00,
2013-03-17 17:38:00,27.3,19.5,30.18,NE,47,4.6,4.6,72,0.00,BKN,,0.00,107.0,WeatherDisplay:10.37,2013-03-17 22:38:00,
2013-03-17 17:43:00,27.5,19.7,30.17,NE,36,5.8,5.8,72,0.00,BKN,,0.00,70.0,WeatherDisplay:10.37,2013-03-17 22:43:00,
2013-03-17 17:48:00,27.7,20.2,30.17,NE,36,10.4,10.4,73,0.00,BKN,,0.00,76.0,WeatherDisplay:10.37,2013-03-17 22:48:00,
2013-03-17 17:53:00,27.6,19.8,30.17,NE,39,6.9,6.9,72,0.00,BKN,,0.00,69.0,WeatherDisplay:10.37,2013-03-17 22:53:00,
2013-03-17 17:58:00,27.4,19.6,30.17,NE,47,4.6,4.6,72,0.00,BKN,,0.00,49.0,WeatherDisplay:10.37,2013-03-17 22:58:00,
2013-03-17 18:03:00,27.3,19.5,30.17,NE,35,3.5,3.5,72,0.00,BKN,,0.00,44.0,WeatherDisplay:10.37,2013-03-17 23:03:00,
2013-03-17 18:08:00,27.3,19.5,30.17,NE,35,3.5,3.5,72,0.00,BKN,,0.00,40.0,WeatherDisplay:10.37,2013-03-17 23:08:00,
2013-03-17 18:13:00,27.2,19.4,30.17,NE,46,6.0,6.0,72,0.00,BKN,,0.00,39.0,WeatherDisplay:10.37,2013-03-17 23:13:00,
2013-03-17 18:18:00,27.1,19.3,30.17,NE,49,5.8,5.8,72,0.00,BKN,,0.00,37.0,WeatherDisplay:10.37,2013-03-17 23:18:00,
2013-03-17 18:23:00,27.0,19.2,30.17,NNE,33,7.0,7.0,72,0.00,BKN,,0.00,32.0,WeatherDisplay:10.37,2013-03-17 23:23:00,
2013-03-17 18:28:00,26.8,19.0,30.17,NE,47,5.8,5.8,72,0.00,BKN,,0.00,26.0,WeatherDisplay:10.37,2013-03-17 23:28:00,
2013-03-17 18:33:00,26.8,19.0,30.16,NE,39,6.9,6.9,72,0.00,BKN,,0.00,21.0,WeatherDisplay:10.37,2013-03-17 23:33:00,
2013-03-17 18:38:00,26.7,19.2,30.16,NE,44,4.0,4.0,73,0.00,BKN,,0.00,18.0,WeatherDisplay:10.37,2013-03-17 23:38:00,
2013-03-17 18:43:00,26.6,19.1,30.16,NE,50,7.0,7.0,73,0.00,BKN,,0.00,14.0,WeatherDisplay:10.37,2013-03-17 23:43:00,
2013-03-17 18:48:00,26.5,19.0,30.17,NE,39,4.6,4.6,73,0.00,BKN,,0.00,11.0,WeatherDisplay:10.37,2013-03-17 23:48:00,
2013-03-17 18:53:00,26.4,18.9,30.17,NE,41,6.9,6.9,73,0.00,BKN,,0.00,9.0,WeatherDisplay:10.37,2013-03-17 23:53:00,
2013-03-17 18:58:00,26.4,18.9,30.17,NE,41,3.5,3.5,73,0.00,BKN,,0.00,5.0,WeatherDisplay:10.37,2013-03-17 23:58:00,
2013-03-17 19:03:00,26.4,19.2,30.17,NE,36,3.5,3.5,74,0.00,OVC,,0.00,0.0,WeatherDisplay:10.37,2013-03-18 00:03:00,
2013-03-17 19:08:00,26.3,19.1,30.17,NE,40,4.6,4.6,74,0.00,OVC,,0.00,0.0,WeatherDisplay:10.37,2013-03-18 00:08:00,
2013-03-17 19:13:00,26.3,19.1,30.17,NE,35,4.6,4.6,74,0.00,OVC,,0.00,0.0,WeatherDisplay:10.37,2013-03-18 00:13:00,
2013-03-17 19:18:00,26.3,19.1,30.16,NE,48,10.4,10.4,74,0.00,OVC,,0.00,0.0,WeatherDisplay:10.37,2013-03-18 00:18:00,
2013-03-17 19:23:00,26.3,19.1,30.16,NE,38,11.5,11.5,74,0.00,OVC,,0.00,0.0,WeatherDisplay:10.37,2013-03-18 00:23:00,
2013-03-17 19:28:00,26.3,19.1,30.16,NE,39,4.6,4.6,74,0.00,OVC,,0.00,0.0,WeatherDisplay:10.37,2013-03-18 00:28:00,
2013-03-17 19:33:00,26.3,19.1,30.16,NE,39,4.6,4.6,74,0.00,CLR,,0.00,0.0,WeatherDisplay:10.37,2013-03-18 00:33:00,
2013-03-17 19:38:00,26.2,19.4,30.16,NNE,29,6.0,6.0,75,0.00,CLR,,0.00,0.0,WeatherDisplay:10.37,2013-03-18 00:38:00,
2013-03-17 19:43:00,26.2,19.4,30.16,NE,47,4.6,4.6,75,0.00,CLR,,0.00,0.0,WeatherDisplay:10.37,2013-03-18 00:43:00,
2013-03-17 19:48:00,26.2,19.4,30.16,NE,36,4.0,4.0,75,0.00,CLR,,0.00,0.0,WeatherDisplay:10.37,2013-03-18 00:48:00,
2013-03-17 19:53:00,26.1,19.3,30.16,NE,36,3.5,3.5,75,0.00,CLR,,0.00,0.0,WeatherDisplay:10.37,2013-03-18 00:53:00,
2013-03-17 19:58:00,26.1,19.3,30.16,NE,35,4.6,4.6,75,0.00,CLR,,0.00,0.0,WeatherDisplay:10.37,2013-03-18 00:58:00,
2013-03-17 20:03:00,26.0,19.5,30.16,NE,39,3.5,3.5,76,0.00,CLR,,0.00,0.0,WeatherDisplay:10.37,2013-03-18 01:03:00,
2013-03-17 20:08:00,26.0,19.5,30.15,NE,36,4.6,4.6,76,0.00,CLR,,0.00,0.0,WeatherDisplay:10.37,2013-03-18 01:08:00,
2013-03-17 20:13:00,26.1,19.6,30.15,NE,36,3.5,3.5,76,0.00,CLR,,0.00,0.0,WeatherDisplay:10.37,2013-03-18 01:13:00,
2013-03-17 20:18:00,26.1,19.6,30.15,NNE,31,6.9,6.9,76,0.00,CLR,,0.00,0.0,WeatherDisplay:10.37,2013-03-18 01:18:00,
2013-03-17 20:23:00,26.1,19.6,30.15,NNE,33,3.5,3.5,76,0.00,CLR,,0.00,0.0,WeatherDisplay:10.37,2013-03-18 01:23:00,
2013-03-17 20:28:00,26.1,19.6,30.15,NE,34,5.8,5.8,76,0.00,CLR,,0.00,0.0,WeatherDisplay:10.37,2013-03-18 01:28:00,
2013-03-17 20:33:00,26.2,19.7,30.15,NNE,28,3.5,3.5,76,0.00,CLR,,0.00,0.0,WeatherDisplay:10.37,2013-03-18 01:33:00,
2013-03-17 20:38:00,26.1,19.6,30.15,NNE,32,4.6,4.6,76,0.00,CLR,,0.00,0.0,WeatherDisplay:10.37,2013-03-18 01:38:00,
2013-03-17 20:43:00,26.2,20.0,30.15,NE,39,3.5,3.5,77,0.00,CLR,,0.00,0.0,WeatherDisplay:10.37,2013-03-18 01:43:00,
2013-03-17 20:48:00,26.3,20.1,30.15,NNE,33,3.5,3.5,77,0.00,CLR,,0.00,0.0,WeatherDisplay:10.37,2013-03-18 01:48:00,
2013-03-17 20:53:00,26.4,20.2,30.14,NNE,33,3.5,3.5,77,0.00,CLR,,0.00,0.0,WeatherDisplay:10.37,2013-03-18 01:53:00,
2013-03-17 20:58:00,26.5,20.3,30.14,NE,35,5.8,5.8,77,0.00,CLR,,0.00,0.0,WeatherDisplay:10.37,2013-03-18 01:58:00,
2013-03-17 21:03:00,26.6,20.4,30.14,NNE,31,5.8,5.8,77,0.00,CLR,,0.00,0.0,WeatherDisplay:10.37,2013-03-18 02:03:00,
2013-03-17 21:08:00,26.7,20.8,30.13,NE,40,5.0,5.0,78,0.00,CLR,,0.00,0.0,WeatherDisplay:10.37,2013-03-18 02:08:00,
2013-03-17 21:13:00,26.8,20.9,30.13,NE,40,4.6,4.6,78,0.00,CLR,,0.00,0.0,WeatherDisplay:10.37,2013-03-18 02:13:00,
2013-03-17 21:18:00,26.8,20.9,30.13,NNE,33,3.5,3.5,78,0.00,CLR,,0.00,0.0,WeatherDisplay:10.37,2013-03-18 02:18:00,
2013-03-17 21:23:00,26.7,21.1,30.13,NE,40,8.1,8.1,79,0.00,CLR,,0.00,0.0,WeatherDisplay:10.37,2013-03-18 02:23:00,
2013-03-17 21:28:00,26.8,21.2,30.13,NE,46,6.0,6.0,79,0.00,CLR,,0.00,0.0,WeatherDisplay:10.37,2013-03-18 02:28:00,
2013-03-17 21:33:00,26.8,21.2,30.13,NE,39,4.6,4.6,79,0.00,CLR,,0.00,0.0,WeatherDisplay:10.37,2013-03-18 02:33:00,
2013-03-17 21:38:00,26.8,21.2,30.12,NNE,33,5.8,5.8,79,0.00,CLR,,0.00,0.0,WeatherDisplay:10.37,2013-03-18 02:38:00,
2013-03-17 21:43:00,26.7,21.1,30.12,NE,37,3.5,3.5,79,0.00,CLR,,0.00,0.0,WeatherDisplay:10.37,2013-03-18 02:43:00,
2013-03-17 21:48:00,26.6,21.0,30.12,NE,52,3.5,4.2,79,0.00,CLR,,0.00,0.0,WeatherDisplay:10.37,2013-03-18 02:48:00,
2013-03-17 21:53:00,26.7,21.4,30.11,NNE,29,5.8,5.8,80,0.00,CLR,,0.00,0.0,WeatherDisplay:10.37,2013-03-18 02:53:00,
2013-03-17 21:58:00,26.7,21.4,30.11,NE,41,4.6,4.6,80,0.00,CLR,,0.00,0.0,WeatherDisplay:10.37,2013-03-18 02:58:00,
2013-03-17 22:03:00,26.7,21.4,30.11,NE,35,3.5,3.5,80,0.00,CLR,,0.00,0.0,WeatherDisplay:10.37,2013-03-18 03:03:00,
2013-03-17 22:08:00,26.6,21.3,30.11,NE,38,4.6,4.6,80,0.00,CLR,,0.00,0.0,WeatherDisplay:10.37,2013-03-18 03:08:00,
2013-03-17 22:13:00,26.6,21.3,30.10,NNE,29,3.5,3.5,80,0.00,CLR,,0.00,0.0,WeatherDisplay:10.37,2013-03-18 03:13:00,
2013-03-17 22:18:00,26.6,21.6,30.10,NE,35,4.6,4.6,81,0.00,CLR,,0.00,0.0,WeatherDisplay:10.37,2013-03-18 03:18:00,
2013-03-17 22:23:00,26.7,21.7,30.10,NNE,32,3.5,3.5,81,0.00,CLR,,0.00,0.0,WeatherDisplay:10.37,2013-03-18 03:23:00,
2013-03-17 22:28:00,26.7,21.7,30.10,NE,36,5.0,5.0,81,0.00,CLR,,0.00,0.0,WeatherDisplay:10.37,2013-03-18 03:28:00,
2013-03-17 22:33:00,26.8,21.8,30.10,NE,35,3.5,3.5,81,0.00,CLR,,0.00,0.0,WeatherDisplay:10.37,2013-03-18 03:33:00,
2013-03-17 22:38:00,26.8,21.8,30.10,NE,40,5.8,5.8,81,0.00,CLR,,0.00,0.0,WeatherDisplay:10.37,2013-03-18 03:38:00,
2013-03-17 22:43:00,27.1,22.0,30.09,NNE,31,6.9,6.9,81,0.00,CLR,,0.00,0.0,WeatherDisplay:10.37,2013-03-18 03:43:00,
2013-03-17 22:48:00,27.2,22.1,30.09,NE,38,4.6,4.6,81,0.00,CLR,,0.00,0.0,WeatherDisplay:10.37,2013-03-18 03:48:00,
2013-03-17 22:53:00,27.2,21.8,30.09,NE,44,6.9,6.9,80,0.00,CLR,,0.00,0.0,WeatherDisplay:10.37,2013-03-18 03:53:00,
2013-03-17 22:58:00,27.4,22.0,30.09,NE,38,4.6,4.6,80,0.00,CLR,,0.00,0.0,WeatherDisplay:10.37,2013-03-18 03:58:00,
2013-03-17 23:00:00,27.4,22.0,30.09,NE,36,3.0,7.0,80,0.00,CLR,,0.00,0.0,WeatherDisplay:10.37,2013-03-18 04:00:00,
2013-03-17 23:05:00,27.4,22.0,30.09,NE,38,5.8,5.8,80,0.00,CLR,,0.00,0.0,WeatherDisplay:10.37,2013-03-18 04:05:00,
2013-03-17 23:10:00,27.5,22.1,30.08,NE,44,4.0,4.0,80,0.00,CLR,,0.00,0.0,WeatherDisplay:10.37,2013-03-18 04:10:00,
2013-03-17 23:15:00,27.5,22.4,30.08,NE,38,3.5,3.5,81,0.00,CLR,,0.00,0.0,WeatherDisplay:10.37,2013-03-18 04:15:00,
2013-03-17 23:20:00,27.5,22.4,30.08,NE,40,4.0,4.0,81,0.00,CLR,,0.00,0.0,WeatherDisplay:10.37,2013-03-18 04:20:00,
2013-03-17 23:25:00,27.5,22.4,30.08,NE,35,4.6,4.6,81,0.00,CLR,,0.00,0.0,WeatherDisplay:10.37,2013-03-18 04:25:00,
2013-03-17 23:30:00,27.5,22.4,30.08,NE,44,5.0,5.0,81,0.00,CLR,,0.00,0.0,WeatherDisplay:10.37,2013-03-18 04:30:00,
2013-03-17 23:35:00,27.7,22.6,30.07,NE,41,4.6,4.6,81,0.00,CLR,,0.00,0.0,WeatherDisplay:10.37,2013-03-18 04:35:00,
2013-03-17 23:40:00,27.7,22.6,30.07,NE,36,5.8,5.8,81,0.00,CLR,,0.00,0.0,WeatherDisplay:10.37,2013-03-18 04:40:00,
2013-03-17 23:45:00,27.7,22.6,30.07,NE,46,5.8,5.8,81,0.00,CLR,,0.00,0.0,WeatherDisplay:10.37,2013-03-18 04:45:00,
2013-03-17 23:50:00,27.8,23.0,30.07,NE,51,9.2,9.2,82,0.00,CLR,,0.00,0.0,WeatherDisplay:10.37,2013-03-18 04:50:00,
2013-03-17 23:55:00,27.9,23.1,30.07,NE,52,4.6,4.6,82,0.00,CLR,,0.00,0.0,WeatherDisplay:10.37,2013-03-18 04:55:00,